{"data":{"norad_id":63743,"intl_designator":"2025-088V","name":"KUIPER-00030","alt_names":[],"object_type":"PAYLOAD","status":"ACTIVE","operator":null,"country":"US","launch_date":"2025-04-28","launch_site_code":"AFETR","launch_vehicle":null,"mission":null,"orbit_class":"UNKNOWN","rcs_meters":null,"size_class":null,"mass_kg":null,"dimensions":null,"purposes":[],"wikipedia_slug":null,"has_3d_model":false,"image_url":null,"decayed_at":null,"tle_current":{"epoch":"2026-09-21T19:38:30.075360Z","epoch_age_seconds":90817,"freshness":"FRESH","line1":"1 63743U 25088V   26264.81840365 -.00000304  00000+0 -10902-4 0  9995","line2":"2 63743  51.9022 323.2838 0000098 169.4154 190.6810 14.79930682 76670","mean_motion":14.79930682,"eccentricity":9.8e-6,"inclination_deg":51.9022,"raan_deg":323.2838,"arg_perigee_deg":169.4154,"mean_anomaly_deg":190.681,"bstar":-1.0902e-5,"rev_number":7667,"period_min":97.301854574294,"perigee_km":629.47427127267,"apogee_km":629.61162179962,"semimajor_km":7007.6799465361,"source":"CELESTRAK","updated_at":"2026-09-22T09:00:29.320989Z"}}}